RH
19 18 17 16 15 13 11 10 8 6 5 4 3 3 3 3 3 3 3 3 3 3 3 4 4 4 4 4 3 3 3 3 3 3 4 5 7 10 11 12 13 12 12 11 11 11 12 13 15 16 18 19 21 23 24 25 26 26 27 28 28 29 29 28 29 29 29 30 30 30 30 30 30 29 29 29 31 32 32 32 32 32 33 33 35 36
14 13 12 10 8 7 5 4 3 3 3 3 3 3 3 3 3 4 4 4 4 4 4 4 4 4 4 4 4 4 3 3 3 3 4 5 7 9 10 12 13 13 13 13 13 14 15 16 17 18 19 21 24 28 30 32 33 34 34 33 32 31 29 30 31 32 32 32 32 31 31 30 30 30 31 31 33 34 33 34 34 34 36 37 38 38
8 7 6 5 4 3 3 3 3 3 3 3 4 4 4 4 4 4 5 5 5 5 5 5 5 4 4 3 3 3 3 3 3 3 4 5 7 8 11 13 14 16 18 19 20 20 21 22 22 24 26 30 33 35 37 38 38 37 36 34 32 30 31 32 32 31 31 30 30 30 30 31 31 31 33 34 35 37 38 36 36 37 39 41 41 41
4 3 3 3 3 3 3 3 4 5 5 5 5 5 5 5 5 5 6 6 6 6 5 5 4 4 3 3 3 3 3 3 3 3 4 4 5 7 10 13 18 26 31 32 32 31 31 30 32 36 40 42 42 41 40 39 37 35 34 33 33 33 34 35 35 37 38 40 41 42 43 44 46 47 47 45 43 42 41 38 38 40 41 43 43 44
3 3 3 3 3 4 4 5 5 6 6 6 6 6 6 6 7 7 6 6 6 5 5 4 4 3 3 3 3 3 3 3 3 3 4 4 4 5 7 11 21 34 40 40 41 43 44 44 45 46 47 47 46 46 45 44 45 47 49 52 55 58 60 62 63 63 63 62 63 64 67 71 74 76 76 77 73 64 55 48 45 44 45 47 49 51
4 4 4 5 5 6 6 6 7 7 7 7 8 8 8 7 7 6 6 5 4 4 3 3 3 3 3 3 3 3 3 3 3 4 4 4 4 5 5 9 17 26 30 31 33 39 44 48 53 57 59 59 60 61 61 61 62 63 64 65 66 68 71 73 75 75 73 71 72 76 80 81 79 74 74 80 83 81 78 72 65 62 61 59 57 60
5 5 6 7 7 7 8 8 8 8 9 9 9 8 7 6 5 4 4 4 4 3 3 4 4 4 4 4 4 4 4 4 4 4 5 5 5 5 5 6 8 11 13 14 16 19 23 28 37 45 50 50 50 51 52 51 50 51 51 51 52 54 56 60 64 67 68 64 63 63 62 58 51 45 44 51 61 69 79 82 82 86 88 85 78 76
6 7 8 8 9 9 10 10 10 10 10 9 8 6 5 4 4 4 4 4 4 4 4 5 5 5 5 5 5 5 5 5 5 5 5 6 6 6 6 6 6 6 7 8 9 9 9 10 12 16 19 20 22 24 26 28 31 34 36 38 39 39 41 42 42 42 39 34 31 29 27 25 23 22 22 27 34 41 54 63 72 88 98 100 98 96
8 9 10 10 11 11 11 12 11 10 8 6 5 4 4 4 4 4 4 5 5 5 6 6 6 7 6 6 7 6 7 7 7 7 7 7 7 7 6 6 6 7 7 7 7 7 7 7 7 8 8 10 11 12 12 15 17 18 19 19 19 19 19 19 18 17 15 14 13 12 13 13 13 15 13 16 17 22 41 49 52 78 99 102 103 103
10 11 12 13 13 13 13 11 9 6 5 4 4 4 4 4 4 5 5 5 5 6 6 7 7 7 7 8 8 8 8 8 8 8 8 8 7 7 7 8 8 8 8 8 8 8 8 8 8 8 9 9 9 9 9 10 10 10 10 9 10 10 10 11 10 11 10 10 10 10 10 10 10 11 10 13 11 13 30 34 32 55 80 91 99 100
14 14 15 15 14 13 10 7 5 5 5 5 5 5 5 5 5 5 5 5 6 6 6 7 7 8 9 10 10 10 10 11 11 11 11 11 10 10 9 9 10 9 9 9 8 9 8 8 9 8 8 8 8 8 8 8 9 9 9 9 10 9 9 10 9 9 10 9 10 10 10 10 11 11 10 11 11 10 13 15 17 26 38 54 73 86
15 15 16 14 12 8 5 5 5 5 5 5 6 6 6 6 6 6 6 6 6 7 7 8 9 10 12 14 14 14 15 16 16 16 16 16 15 16 17 16 16 15 13 13 12 11 10 10 10 10 10 10 11 11 11 11 11 10 10 10 10 11 11 11 11 11 11 10 11 10 10 11 10 11 11 11 12 12 11 11 12 13 16 23 37 58
16 15 13 10 7 5 5 5 5 6 6 7 7 7 7 7 7 7 8 8 7 8 9 10 10 11 14 19 20 19 21 21 22 22 22 22 23 25 26 25 24 23 21 21 20 19 19 18 17 17 17 18 19 20 19 18 17 16 16 14 13 13 12 12 12 13 13 13 13 13 13 13 12 12 12 12 12 12 12 12 11 11 13 12 15 31
12 10 8 5 4 5 5 5 6 6 7 7 8 8 10 10 9 10 11 11 9 8 9 10 12 13 15 21 25 24 24 25 26 28 28 28 30 32 33 32 30 29 29 30 30 29 28 28 27 26 26 29 32 34 35 35 34 32 29 26 24 22 20 19 18 18 18 17 17 16 16 15 16 15 14 15 14 13 13 12 13 13 12 12 13 15
8 6 4 4 5 5 6 6 6 7 8 9 9 10 12 13 13 14 15 15 12 9 9 9 11 13 14 21 28 26 26 28 29 31 33 34 36 36 36 36 33 33 34 36 36 35 34 34 34 34 34 38 43 47 49 48 46 44 41 38 36 33 31 29 28 27 26 24 22 21 21 19 19 19 19 19 17 17 16 14 14 13 13 14 13 12
7 6 5 5 6 5 6 7 7 9 9 10 11 13 14 15 16 16 15 17 15 11 10 9 11 13 13 20 29 28 27 31 33 34 35 36 37 37 37 37 36 37 37 35 34 35 39 42 42 41 43 49 54 57 58 56 51 47 44 42 40 38 36 33 32 32 30 29 28 26 25 24 24 24 24 24 22 21 19 17 17 15 15 15 11 15
5 6 6 6 6 7 8 9 9 11 12 13 15 16 16 16 18 17 15 16 17 14 12 10 11 11 12 19 30 33 32 34 35 35 36 37 37 37 37 37 37 34 32 30 32 36 41 46 47 47 48 53 57 58 59 57 52 49 47 46 45 43 42 40 38 35 32 31 30 31 32 30 30 30 29 29 28 26 23 21 21 18 17 18 15 16
4 5 6 6 7 9 10 11 12 13 15 16 18 19 19 19 19 19 19 18 18 17 14 12 11 10 13 20 31 37 38 37 36 35 33 30 29 28 30 34 35 34 33 33 37 41 45 48 49 48 47 49 54 57 59 58 54 53 52 52 51 50 49 50 48 45 42 41 38 36 36 35 33 34 34 35 34 33 31 28 26 24 22 22 19 19
5 5 6 8 9 10 11 13 13 14 16 19 21 22 22 22 23 22 23 25 25 23 20 15 11 9 14 23 33 40 41 41 39 33 27 23 23 25 29 34 38 40 41 43 45 46 47 48 46 44 42 41 44 48 51 56 57 56 56 56 59 59 58 57 55 53 54 55 54 51 47 45 41 38 37 39 40 39 38 37 35 31 27 26 24 23
5 6 7 9 11 13 13 13 13 14 17 19 21 23 24 26 28 24 24 29 30 30 30 24 13 7 13 28 41 46 43 42 39 32 27 27 30 34 36 40 46 49 50 51 51 50 51 53 49 43 41 41 44 46 48 50 52 55 59 59 61 62 60 59 57 56 58 61 65 66 63 59 55 50 46 44 46 45 45 45 42 40 36 33 30 27
7 7 7 9 11 13 14 14 14 14 17 20 22 24 26 29 30 25 23 27 31 33 35 35 23 7 14 36 49 49 44 42 42 39 37 40 44 46 48 51 53 55 57 58 57 56 59 63 58 51 54 63 69 74 77 76 74 78 83 83 81 77 74 76 70 58 53 56 60 62 65 64 61 60 58 55 54 53 54 54 50 48 45 41 38 33
8 8 8 8 10 12 15 16 15 15 17 21 23 25 29 31 31 28 24 25 29 30 34 45 35 12 20 46 51 45 40 39 40 40 41 46 49 51 55 61 66 69 71 70 67 66 69 73 73 69 73 87 95 97 98 100 99 100 102 101 102 101 98 99 91 71 59 58 58 58 61 66 66 63 62 62 62 62 63 66 64 59 53 48 47 41
9 9 8 9 10 14 17 17 15 13 15 18 22 26 30 31 30 30 29 28 26 22 31 49 40 18 27 47 42 33 32 33 36 40 45 51 54 59 67 73 78 82 84 82 81 82 83 86 87 82 82 92 100 101 99 99 100 100 98 98 101 102 99 101 102 91 74 63 60 60 60 65 71 71 65 61 62 64 68 72 73 71 66 58 52 49
10 10 10 10 11 12 14 14 13 12 13 16 20 24 27 27 26 26 28 28 23 20 30 42 32 19 28 36 28 25 28 31 37 41 48 55 61 71 80 83 86 90 91 90 91 92 92 94 96 90 84 83 87 95 100 99 99 98 98 98 96 92 88 94 104 100 84 66 58 61 63 60 64 68 64 55 51 52 58 67 74 76 75 72 63 56
12 13 14 14 13 13 12 12 11 11 13 15 17 20 22 22 22 21 21 24 23 22 26 29 25 23 27 26 22 25 28 32 39 46 55 64 68 71 75 78 85 89 88 89 95 100 100 103 106 97 85 80 83 93 99 98 98 101 103 104 102 98 95 98 102 98 88 71 56 62 76 74 66 61 56 52 46 40 40 52 70 80 80 79 76 68
14 15 17 19 19 21 22 20 18 15 14 16 17 18 18 19 21 19 18 20 23 22 20 20 23 25 24 22 23 29 35 41 50 58 62 63 66 71 74 79 86 89 89 92 99 102 100 103 105 97 91 94 98 101 102 101 100 100 102 101 99 96 89 84 83 81 79 71 64 74 92 97 92 83 76 70 54 39 34 42 64 83 86 84 84 79
15 16 18 19 19 23 26 23 21 19 18 20 19 16 17 18 19 18 18 19 22 23 19 18 24 27 27 32 45 59 67 66 63 61 60 63 75 89 93 93 94 96 97 97 97 100 104 107 102 86 78 85 92 95 98 97 92 83 78 75 73 72 69 69 76 83 86 85 86 94 100 101 100 96 93 87 67 50 42 42 61 85 92 87 86 88
17 17 18 18 16 20 22 20 20 20 20 20 19 17 17 17 17 18 19 19 21 23 21 19 23 32 45 62 77 85 87 80 70 68 74 86 96 102 100 99 100 101 101 101 100 100 96 87 73 56 52 63 74 81 83 82 77 67 58 55 55 59 63 69 77 85 91 95 97 96 91 84 76 71 74 75 70 68 59 47 60 89 99 91 86 91
19 19 18 16 14 17 20 19 19 19 18 19 19 18 17 17 18 18 17 18 19 22 25 29 41 64 83 90 87 83 84 85 83 86 94 100 102 102 102 100 96 90 85 80 75 68 58 50 46 45 49 56 60 59 56 53 49 44 39 36 34 34 37 41 43 45 51 57 61 60 55 46 38 35 46 59 65 63 53 46 59 81 91 93 95 96
20 19 18 15 12 15 18 18 17 17 18 19 18 17 18 18 18 19 18 19 20 24 32 46 67 88 97 93 87 86 91 94 95 98 100 98 97 92 82 70 59 50 44 37 33 30 27 26 26 26 29 31 32 31 31 31 30 30 30 30 31 32 32 32 32 31 32 34 34 33 31 27 24 24 38 68 86 74 58 63 79 85 86 91 96 98
21 18 17 14 11 12 15 16 16 17 19 18 17 17 17 17 18 18 18 18 21 28 40 57 78 90 91 92 93 93 96 99 98 94 83 69 60 50 40 33 27 22 19 18 18 19 21 25 30 35 40 41 41 41 41 41 42 42 43 43 44 44 48 51 49 45 47 48 45 43 39 33 29 26 36 71 103 99 84 90 100 99 96 97 98 99
20 17 16 15 11 11 15 16 16 17 18 17 16 16 17 19 18 18 21 24 30 46 65 81 97 101 95 93 94 94 99 100 89 70 49 34 28 26 23 19 17 19 26 33 39 45 51 55 57 56 56 55 56 58 59 61 62 60 58 57 55 55 64 74 75 73 76 75 68 63 62 60 56 46 41 61 95 107 101 99 101 100 102 102 102 101
19 17 17 16 13 13 16 17 16 17 17 17 17 18 19 20 19 21 26 27 39 71 98 105 102 97 93 96 99 95 88 73 53 35 24 22 24 21 18 20 32 50 65 72 75 73 68 62 59 60 65 70 76 80 83 87 87 81 74 69 66 66 71 82 91 95 97 96 88 74 69 81 94 87 64 55 73 95 102 101 100 100 101 102 101 101
18 18 19 18 17 16 17 18 17 17 19 19 19 20 20 21 23 27 31 39 63 91 99 91 86 90 95 94 82 63 47 35 25 20 20 23 22 20 27 46 68 84 88 86 80 69 59 58 62 70 78 81 84 88 93 98 97 92 86 80 76 75 79 90 100 102 100 100 97 82 69 77 98 104 90 70 60 65 77 90 98 99 100 99 93 93
19 19 19 20 20 19 20 20 19 20 21 21 20 21 22 22 26 31 36 49 71 82 78 79 86 86 75 57 38 28 24 20 17 17 18 19 22 37 61 80 91 95 97 96 85 66 60 67 75 83 86 85 87 93 100 103 101 96 89 84 80 78 82 89 93 95 97 96 91 82 72 76 88 91 86 81 73 61 53 61 75 86 96 98 86 83
20 20 19 21 22 22 21 21 21 22 22 21 21 22 23 23 28 36 36 36 48 62 73 80 71 50 32 22 19 20 19 15 14 14 16 23 42 69 89 96 99 104 107 106 90 70 66 77 88 94 93 88 91 99 104 106 102 94 85 81 81 81 87 94 93 91 89 84 84 86 81 82 89 84 72 73 83 77 56 43 47 60 81 94 86 74
20 21 21 22 23 24 23 22 23 23 22 21 21 23 25 28 34 41 38 31 39 55 60 51 32 20 17 17 17 18 17 15 14 13 22 44 69 87 95 99 105 108 105 97 82 70 73 83 89 89 84 81 89 100 107 106 98 90 84 81 83 89 98 103 99 91 83 80 89 97 89 81 82 81 77 79 84 79 61 43 35 38 54 75 81 69
21 23 24 24 24 24 24 24 26 26 24 23 23 25 30 32 32 36 35 33 37 40 34 24 17 16 17 16 16 18 19 17 13 19 43 68 82 88 94 100 107 108 101 88 72 68 76 81 79 76 74 77 88 98 103 100 91 85 82 80 81 90 98 94 86 84 86 86 90 90 84 83 85 87 89 92 95 92 74 51 40 40 40 45 59 62
23 24 25 25 24 25 27 28 30 29 26 24 25 28 32 31 30 32 33 30 28 26 21 17 16 16 17 18 18 19 20 20 23 39 63 77 82 88 94 98 100 96 88 79 72 74 80 79 74 73 73 78 89 99 102 98 90 86 86 84 83 91 100 93 80 82 87 87 88 92 94 97 99 97 94 94 100 104 94 78 72 75 66 47 44 51
24 25 26 25 25 27 29 30 30 28 26 25 27 29 30 30 30 32 30 26 23 21 17 17 18 19 21 21 20 20 25 31 42 58 72 79 82 87 92 95 93 81 71 69 73 78 80 76 75 74 73 78 91 100 101 99 95 92 95 96 93 96 104 94 79 83 91 90 93 100 101 100 101 99 97 98 100 101 100 99 97 98 93 74 54 46
25 25 26 26 26 28 29 29 28 26 25 26 27 28 29 30 31 31 29 25 21 19 19 20 23 24 25 25 26 28 34 45 57 68 75 80 84 87 89 90 84 74 70 73 79 84 81 76 75 75 74 80 93 100 101 101 100 98 100 103 98 99 103 91 77 85 97 99 100 97 94 99 105 102 99 100 101 99 99 99 97 96 95 85 69 54
27 27 28 28 27 27 28 27 27 26 26 28 28 28 30 33 32 30 26 22 19 20 22 22 25 29 32 32 34 40 49 58 66 71 76 83 89 89 84 78 73 71 75 79 83 87 83 75 74 75 75 82 94 100 100 100 100 100 104 105 100 100 101 87 76 87 100 104 103 98 96 103 104 98 98 99 100 100 98 94 91 90 84 74 66 60
30 30 29 28 28 28 27 28 29 30 29 30 31 31 32 33 31 27 22 18 18 21 23 23 28 37 43 43 45 51 57 61 67 75 82 87 88 83 75 71 71 73 78 83 87 89 85 79 78 79 80 86 96 100 100 101 101 101 105 105 100 103 101 84 75 88 100 98 97 100 105 105 97 93 98 101 100 101 100 96 95 94 84 66 51 50
30 30 30 31 31 31 30 30 32 33 30 30 32 32 31 30 26 21 18 16 16 19 23 28 35 45 54 57 56 58 61 66 75 83 84 81 77 72 68 70 75 78 84 91 94 92 88 83 80 80 82 89 97 100 99 100 101 102 105 104 101 103 97 80 75 87 88 84 92 103 102 94 90 93 99 101 100 100 100 100 102 103 96 73 49 41
30 30 32 33 31 30 30 30 30 30 29 28 28 28 28 26 22 18 15 14 14 18 27 37 45 52 59 63 63 63 68 77 84 85 81 74 69 69 72 76 82 88 93 99 100 96 90 86 83 82 82 86 96 101 100 100 103 106 106 103 101 103 93 75 72 79 77 81 99 103 88 80 90 100 103 101 100 100 101 101 102 105 101 83 62 49
31 31 31 30 28 28 28 27 26 26 26 26 26 25 26 23 19 15 13 11 12 20 33 44 52 57 62 67 71 74 79 87 87 79 72 69 70 75 82 85 90 97 101 104 102 95 89 86 84 83 82 84 94 101 100 99 102 106 106 100 95 95 88 74 67 69 74 90 105 97 79 81 96 104 102 99 99 101 103 100 100 106 99 76 61 58
30 30 28 27 27 28 28 27 26 25 25 27 26 25 24 20 16 13 11 9 12 23 36 46 53 58 63 70 81 88 89 90 85 73 65 70 78 86 93 97 99 102 103 105 104 99 94 90 86 85 85 85 92 99 100 100 103 104 103 95 83 77 76 70 64 64 76 95 102 92 83 90 99 102 100 100 101 103 103 99 99 104 92 66 59 74
30 29 28 27 28 29 30 29 27 24 23 25 25 23 21 18 14 11 9 8 15 26 36 44 52 61 66 73 86 93 87 79 76 69 67 75 86 96 102 104 105 104 103 105 105 102 99 94 89 90 90 89 94 100 100 100 102 102 98 88 70 60 62 62 58 64 81 96 96 92 95 99 101 101 100 99 100 100 100 99 101 102 97 85 84 96
33 32 30 28 28 29 30 30 29 25 23 24 24 23 20 16 13 11 8 10 19 30 38 42 49 61 73 82 89 87 74 65 65 66 70 82 95 104 106 104 103 102 102 103 104 104 101 96 91 93 94 94 97 100 100 101 100 96 94 82 60 48 52 55 54 65 85 96 97 99 104 103 100 101 101 99 101 100 94 92 95 99 102 101 101 102
34 34 32 31 31 32 33 34 34 31 28 26 25 23 18 15 13 10 9 15 25 34 39 43 47 56 68 83 93 86 67 57 60 68 79 93 102 105 104 103 102 100 100 101 103 103 101 94 90 93 96 98 99 100 100 103 97 89 86 75 53 43 47 49 52 68 85 94 98 102 103 101 100 101 100 99 102 101 90 79 81 92 101 102 101 102
35 36 37 37 36 35 36 37 36 34 31 28 25 22 17 14 12 11 14 25 34 38 44 50 54 57 60 69 81 81 66 55 60 72 84 95 101 101 102 103 102 100 99 99 102 104 99 88 84 87 91 97 102 100 100 102 93 80 77 68 48 41 45 45 52 68 80 87 93 97 97 99 101 101 99 100 102 100 92 84 82 87 94 97 99 99
Wind_Speed
27 28 30 31 32 33 34 34 35 36 36 36 37 37 38 38 38 39 40 41 41 40 42 44 46 48 47 48 48 48 49 50 49 49 48 47 46 44 44 44 43 43 43 45 46 46 46 46 46 46 46 46 45 45 45 46 46 47 47 47 48 50 51 51 52 52 53 53 53 54 54 54 54 54 54 54 54 53 53 53 52 52 51 50 49 49
28 29 31 31 32 33 33 34 34 35 35 36 37 37 38 39 39 40 42 43 43 43 44 45 48 50 49 49 48 49 50 49 48 47 47 47 46 45 45 44 44 44 44 44 44 45 45 46 46 47 47 46 46 45 44 44 45 46 47 48 50 51 52 52 52 52 53 53 53 53 53 54 54 54 54 53 53 53 53 52 52 52 51 50 49 49
29 29 30 31 32 32 33 33 34 36 37 37 39 39 40 41 40 41 43 45 45 45 45 46 48 50 50 49 49 50 49 47 46 46 46 45 44 44 43 42 42 41 41 41 41 42 43 43 44 44 44 44 45 45 46 46 48 49 50 51 51 52 51 52 52 52 52 53 53 53 53 53 53 53 53 53 52 52 52 52 52 51 51 50 50 50
28 29 29 31 32 33 33 34 36 37 38 39 40 41 42 43 44 43 44 46 47 47 46 46 47 47 47 47 49 49 46 45 45 44 44 43 42 42 41 40 39 38 37 37 37 38 39 39 39 40 41 42 44 46 47 48 49 49 50 50 50 50 50 50 51 51 51 51 52 52 52 52 52 52 53 53 53 53 53 53 53 52 51 50 50 50
29 30 31 33 34 35 35 36 37 38 39 40 41 42 43 44 45 46 46 46 47 47 46 45 43 40 40 44 46 45 43 43 43 42 42 41 40 40 39 39 38 36 35 35 36 36 36 37 37 39 40 42 44 45 46 46 47 47 47 48 48 48 49 49 49 50 50 51 51 51 51 51 51 51 52 53 53 54 55 55 54 54 52 51 50 50
31 32 33 35 36 36 37 38 39 39 40 41 42 43 43 44 44 45 45 44 44 45 44 44 42 37 37 42 43 42 41 41 41 40 40 38 37 37 36 36 35 34 34 35 36 36 37 37 39 40 41 42 43 44 45 46 47 47 48 49 49 49 49 49 50 50 50 51 51 52 52 52 52 52 51 52 53 53 54 55 55 56 55 53 52 51
32 34 35 36 37 37 38 38 39 40 41 42 42 42 42 42 42 42 42 42 42 42 42 41 40 37 37 39 41 41 41 40 40 39 38 38 36 34 33 32 32 32 33 34 35 37 37 38 39 40 41 43 44 45 46 47 48 49 49 50 50 50 50 50 50 50 50 51 51 51 52 52 52 52 52 52 52 51 51 51 52 54 55 55 54 53
34 35 36 37 38 38 38 39 40 41 41 41 40 40 40 40 39 39 39 39 39 40 40 39 39 39 39 39 40 41 42 41 41 40 39 39 38 35 33 31 32 32 33 34 35 37 38 38 39 40 41 43 44 46 47 48 49 49 50 50 50 51 51 51 50 50 50 50 50 50 51 51 51 51 50 50 50 50 49 49 49 49 51 53 54 53
35 36 37 38 38 39 39 39 40 39 39 38 38 38 38 38 37 37 37 38 38 38 40 40 41 41 41 41 41 41 42 43 43 42 42 42 40 38 36 34 34 34 35 36 37 39 39 39 40 41 42 44 44 45 46 46 47 47 48 48 48 49 49 48 48 48 47 47 47 47 47 47 47 47 47 47 48 47 47 47 47 46 48 50 51 52
36 37 37 37 37 38 38 38 38 37 37 37 37 37 37 37 36 37 38 39 38 38 40 42 44 44 43 42 42 42 43 44 44 43 44 44 42 41 40 39 38 38 39 40 41 42 42 42 42 42 42 43 44 44 45 45 45 45 45 46 46 46 46 46 45 45 44 44 44 43 43 43 43 43 43 43 44 45 45 45 45 45 46 47 48 49
36 36 35 35 36 37 37 37 36 37 37 37 37 37 37 36 37 38 39 40 40 39 41 42 44 45 45 44 44 44 44 45 44 44 45 44 43 43 43 43 43 43 43 44 45 45 44 44 44 44 44 45 46 46 46 47 47 47 47 47 47 47 47 47 47 46 46 46 46 45 45 44 44 43 43 42 42 43 43 43 44 44 45 46 47 47
34 34 34 34 34 34 35 36 37 37 38 39 40 39 39 38 38 40 40 40 42 41 41 43 44 44 45 44 45 45 45 44 43 43 44 44 44 44 45 45 45 46 47 47 48 48 48 48 47 48 48 48 49 49 49 50 50 51 51 51 51 51 51 50 50 50 50 50 50 49 49 48 47 47 46 45 44 44 43 42 43 43 43 45 46 47
32 32 32 33 33 33 33 36 38 39 40 41 42 43 43 43 44 45 44 44 44 43 42 44 46 45 45 44 44 45 44 42 42 43 43 43 44 45 45 46 47 48 49 49 50 50 50 51 51 51 51 52 52 52 52 52 53 53 54 54 54 55 55 54 54 54 53 53 53 53 52 52 51 50 50 49 48 47 46 45 44 43 43 43 44 45
31 31 32 33 34 35 37 39 41 43 44 45 46 46 47 48 49 49 49 48 47 47 45 45 47 47 46 46 44 44 42 42 43 44 45 45 45 46 47 48 49 50 50 50 50 51 53 54 54 55 55 55 55 55 55 55 55 56 56 56 56 56 56 56 56 56 55 55 55 55 55 54 53 53 53 52 51 51 49 48 47 46 45 44 43 44
32 33 34 35 37 39 42 43 45 46 47 47 48 48 47 49 50 50 51 51 51 51 49 47 48 48 48 48 44 42 41 44 46 46 47 48 48 50 51 52 53 53 52 51 52 53 55 57 57 57 57 58 58 58 57 57 58 58 58 58 58 58 58 58 58 58 58 57 58 58 57 56 55 54 54 54 53 53 52 51 50 48 47 46 45 44
33 35 36 38 40 43 45 46 47 48 48 48 48 47 47 48 49 50 51 52 53 54 52 50 50 50 49 46 42 41 44 46 47 47 48 50 52 55 56 57 58 57 57 57 57 57 57 59 59 59 59 59 59 59 60 60 60 61 61 61 61 61 61 61 62 61 61 61 61 60 60 59 58 57 56 55 55 55 55 54 53 51 49 48 47 45
34 36 38 40 42 45 46 47 48 49 48 48 47 47 48 48 49 51 53 53 54 56 54 53 53 53 52 46 39 42 49 50 49 48 49 53 56 58 60 61 62 63 64 65 64 62 61 61 61 61 61 60 60 61 61 62 62 62 63 63 63 63 62 63 63 63 63 63 62 62 61 61 60 59 57 56 56 56 57 56 56 55 52 50 48 46
36 37 39 42 44 45 47 48 49 49 48 48 47 47 48 49 50 52 54 55 55 57 57 55 56 57 56 49 42 43 47 51 54 54 55 58 62 63 64 65 67 69 70 70 68 67 66 65 65 65 64 63 61 62 63 64 64 63 63 63 63 63 63 63 63 63 63 63 63 63 62 62 61 60 58 57 57 57 57 57 57 57 55 52 50 47
40 40 41 43 45 46 47 48 48 49 48 47 46 46 47 48 50 52 54 55 56 58 59 58 59 61 57 52 49 46 42 46 56 62 65 67 69 69 67 66 68 69 69 69 69 69 70 70 70 69 69 68 66 66 66 66 66 65 64 64 64 65 65 65 65 64 63 63 63 64 63 63 62 61 60 58 57 57 58 58 57 58 57 55 52 49
43 44 44 44 45 45 46 47 48 49 47 46 46 46 47 48 49 52 54 54 55 57 59 60 63 65 60 55 52 48 44 50 62 70 73 72 71 69 67 66 66 67 68 69 70 71 72 74 75 75 75 74 73 71 71 70 70 69 68 68 68 68 68 69 69 67 66 65 65 65 64 64 63 63 62 60 59 58 58 58 58 58 57 57 55 52
44 46 46 45 44 44 46 47 49 50 48 47 46 46 47 47 49 53 54 53 54 56 57 59 66 68 63 56 52 51 55 61 66 71 72 71 70 68 68 67 67 68 69 69 70 71 73 76 78 78 76 76 75 75 74 74 73 73 74 75 74 74 73 73 73 73 71 69 68 68 67 67 66 65 64 63 61 60 59 59 59 58 57 57 56 55
45 46 47 46 45 44 44 46 48 50 49 48 47 47 47 48 51 54 56 55 55 58 59 58 65 71 65 55 54 59 65 67 69 71 71 70 70 69 69 69 70 70 70 71 71 73 74 77 78 77 76 75 76 77 78 76 74 75 77 78 77 76 76 75 77 78 76 75 75 74 71 70 68 67 66 65 64 62 61 60 60 60 59 57 56 55
45 46 47 46 45 44 44 45 48 50 49 49 49 48 48 50 53 56 57 58 59 63 62 57 64 71 64 57 61 68 71 72 72 72 70 70 71 71 71 71 71 72 72 73 73 75 77 77 77 76 76 77 78 79 78 76 76 78 81 81 79 79 80 80 80 81 82 82 83 83 79 75 72 70 67 66 66 65 63 62 61 61 61 60 58 55
45 46 47 47 45 45 45 47 49 51 52 52 52 52 52 55 57 58 59 62 65 66 63 61 69 72 66 65 72 74 74 74 73 72 71 71 71 71 73 73 73 74 74 75 76 78 77 74 75 78 80 81 81 81 81 81 83 84 85 84 83 85 85 84 82 83 85 88 90 90 86 81 78 75 74 73 73 72 70 68 66 64 63 62 61 58
45 46 48 50 49 50 51 53 55 55 56 56 56 57 58 59 60 62 63 65 68 67 66 69 75 74 71 74 78 77 76 75 73 72 72 72 73 75 76 75 75 75 75 77 79 77 72 71 78 83 85 84 84 85 86 84 82 81 82 83 85 88 89 88 88 90 92 94 96 96 90 84 82 82 83 82 80 79 78 77 73 69 66 64 63 61
45 46 48 51 52 53 54 56 58 59 59 58 57 58 60 61 63 65 67 69 70 71 72 76 78 77 78 81 80 78 77 75 73 72 73 75 76 76 75 75 77 78 79 79 78 73 71 76 84 87 86 85 86 87 86 81 78 80 86 90 93 96 98 99 99 100 100 100 100 97 90 84 83 84 84 85 85 85 84 81 78 73 68 65 63 62
45 46 48 51 52 51 52 55 58 60 61 60 59 60 61 62 65 67 69 71 73 75 77 79 80 81 82 81 78 75 74 74 75 77 78 77 73 72 75 78 80 80 79 75 72 72 78 87 93 94 92 90 89 90 89 87 88 94 100 102 101 102 102 102 103 103 102 100 97 93 90 88 88 87 86 87 88 88 87 84 79 73 67 64 63 62
46 47 50 52 53 53 55 58 60 61 62 62 63 63 63 64 67 68 71 73 76 79 82 82 82 81 79 76 74 74 75 78 79 79 78 74 72 75 79 79 78 77 75 73 75 83 92 98 100 99 97 95 95 96 97 98 102 105 107 106 105 105 104 104 104 103 101 99 96 94 94 94 94 94 94 94 93 92 90 84 76 68 63 59 59 59
48 50 52 54 55 55 58 60 61 62 63 63 64 66 66 68 70 72 74 77 79 82 83 83 79 75 73 74 76 78 79 80 79 76 73 70 71 74 78 79 80 82 84 86 90 96 100 102 102 101 100 99 98 98 98 99 100 100 100 99 98 97 96 96 96 95 93 92 92 92 92 90 88 89 90 90 89 88 85 77 70 66 62 58 55 55
50 52 54 56 57 57 59 62 63 63 64 64 66 68 70 71 73 75 78 80 82 83 82 78 74 72 73 77 79 79 78 77 75 74 73 73 76 81 85 87 89 91 93 94 95 96 95 94 93 91 89 88 86 84 84 83 83 82 81 80 79 79 78 78 78 77 76 76 75 76 76 75 74 74 77 77 75 73 70 64 60 60 61 58 55 52
53 54 56 59 59 58 60 62 63 64 65 66 68 71 72 74 76 79 83 85 86 85 81 78 76 76 77 79 80 79 78 77 78 79 81 83 86 90 90 89 89 88 86 84 82 80 77 76 74 72 71 69 68 67 67 67 66 66 66 65 65 65 64 63 61 60 58 58 58 59 60 60 60 61 65 70 68 65 62 59 55 54 54 55 54 51
55 57 58 60 62 61 61 63 64 64 66 69 71 74 76 79 82 85 87 89 89 85 80 77 77 78 81 82 81 80 79 81 85 87 88 88 87 86 85 82 78 74 70 66 65 64 64 63 63 61 60 58 58 57 58 58 59 59 59 59 58 57 56 54 53 52 51 49 48 49 49 49 49 50 54 62 66 65 62 60 58 54 50 50 52 51
57 59 61 62 64 64 63 64 66 67 69 72 75 79 82 85 88 89 89 89 87 80 75 75 78 81 82 81 80 81 84 87 90 89 87 85 82 80 75 69 63 58 57 57 58 59 59 58 56 54 53 53 53 54 55 55 57 57 57 57 55 54 52 51 51 51 50 49 48 49 48 46 44 43 45 51 60 65 65 63 60 57 52 49 49 49
58 61 62 64 66 66 66 67 69 71 74 77 80 84 87 90 91 90 89 87 81 75 75 79 82 82 80 80 83 86 89 89 88 85 80 77 73 68 60 54 51 52 54 55 56 55 54 53 51 51 50 51 52 53 53 54 55 57 57 56 54 53 51 51 52 52 52 53 53 53 52 47 43 41 40 42 48 58 65 66 64 61 56 51 47 46
60 62 64 65 67 68 68 71 73 75 77 81 85 87 89 91 91 90 89 85 80 79 82 83 83 82 83 86 87 87 86 85 82 77 70 64 58 53 49 49 50 53 55 55 55 53 51 51 50 50 50 51 52 53 54 55 56 58 57 56 53 51 49 49 51 52 54 56 56 54 52 47 44 41 41 41 42 47 55 63 68 67 62 57 52 47
62 63 64 65 67 69 70 73 75 78 80 83 87 89 91 93 93 92 92 93 89 85 84 84 86 89 90 90 87 85 83 81 76 67 57 50 44 43 46 49 52 54 56 56 55 54 52 51 51 51 52 52 53 54 55 56 58 59 58 55 52 49 47 47 48 48 50 51 51 49 46 44 43 42 42 43 42 42 44 51 61 67 66 63 59 53
62 63 65 66 68 70 73 76 78 81 83 85 89 93 95 96 95 93 96 99 95 88 86 90 95 95 92 89 85 82 78 75 69 57 45 39 39 41 45 49 52 54 55 54 53 52 51 51 51 51 52 52 52 54 55 57 59 59 57 54 51 48 47 48 48 49 49 48 45 43 42 41 42 42 43 42 40 40 40 41 48 58 63 65 64 58
63 64 65 67 70 72 76 80 83 86 88 90 93 95 95 96 96 96 98 100 96 92 94 97 97 93 89 85 81 76 72 69 63 51 40 38 41 44 47 49 51 52 53 52 51 50 50 50 49 50 50 51 51 52 54 56 58 58 56 52 48 46 46 48 49 50 47 43 40 39 38 37 38 40 40 37 32 33 35 35 36 43 51 59 64 62
63 65 66 69 72 75 79 83 86 88 91 93 95 96 96 98 100 100 101 102 100 98 98 96 92 87 82 78 74 70 67 64 57 48 44 44 46 48 50 51 51 51 50 48 48 49 49 48 48 48 48 49 50 51 53 55 56 56 54 49 43 43 45 46 47 45 39 34 33 34 34 34 35 36 33 29 25 26 27 27 29 33 40 48 55 60
65 67 69 72 75 78 81 85 87 89 92 94 96 98 99 101 102 102 104 106 103 99 95 90 84 78 74 71 68 64 60 57 54 49 48 49 49 49 50 51 51 50 48 46 46 47 47 47 47 48 48 48 50 52 53 55 56 56 53 47 42 42 44 46 44 40 34 30 30 31 32 32 33 31 27 23 23 24 24 25 28 31 35 39 44 48
67 69 71 74 77 80 83 86 88 89 92 94 96 99 102 104 104 103 103 103 100 94 88 81 76 72 68 66 62 57 51 49 50 50 49 50 50 50 49 48 48 47 45 45 45 46 46 47 47 48 48 48 51 52 53 55 56 56 52 46 41 41 43 44 41 35 31 29 29 29 29 30 30 27 23 21 23 25 25 27 28 29 29 32 37 39
69 71 73 75 79 82 84 87 89 91 93 96 98 101 103 104 103 101 99 98 94 88 81 75 70 67 64 59 54 51 48 46 47 49 49 50 50 50 48 47 46 44 43 43 43 43 45 46 47 48 48 48 50 52 53 54 56 55 51 46 41 40 41 40 35 31 28 27 26 27 27 27 27 25 22 21 24 26 26 26 26 26 25 26 30 35
71 73 76 79 82 85 87 90 93 95 97 99 102 104 105 104 102 99 97 96 90 81 74 70 65 62 59 54 50 48 48 48 48 49 50 50 50 49 48 47 45 44 43 43 42 43 45 46 47 48 48 48 50 52 52 54 55 54 51 47 41 39 39 37 31 27 26 25 25 26 25 25 24 22 20 22 26 28 27 25 24 23 23 24 26 31
72 75 79 82 86 89 91 93 95 97 99 100 103 105 106 104 102 100 98 94 85 75 70 66 61 56 56 55 53 52 51 51 52 51 51 51 50 49 48 47 46 45 44 44 44 44 45 46 47 47 47 47 48 50 51 53 54 53 51 47 41 38 37 32 26 24 24 24 24 23 20 20 20 19 21 24 27 27 25 24 24 22 20 21 24 28
73 76 80 84 86 88 91 93 94 96 97 98 100 103 104 104 103 101 97 90 80 71 67 64 59 55 55 57 57 56 55 55 55 53 52 51 50 50 49 48 46 46 46 45 44 44 44 45 46 47 47 46 47 49 51 52 51 51 50 46 40 38 36 29 22 21 22 22 21 18 15 15 16 18 22 25 26 25 23 22 22 21 18 17 19 27
74 77 81 84 86 86 87 88 91 93 95 97 99 101 103 104 103 100 94 84 74 67 63 60 58 57 58 59 60 60 58 58 57 54 52 51 51 50 50 49 47 46 46 45 44 44 45 46 46 47 47 46 46 48 50 50 49 49 49 46 41 37 33 26 19 18 21 20 16 13 12 12 13 17 22 23 23 21 19 18 17 17 15 13 16 25
73 77 80 83 86 88 89 90 91 94 96 99 101 102 102 103 102 99 91 79 67 60 56 55 57 58 58 59 62 63 60 58 57 54 52 51 51 50 50 49 48 46 46 45 45 45 45 46 47 48 48 47 47 48 49 48 48 49 48 46 42 36 29 22 17 17 18 17 12 10 11 11 13 18 20 20 18 15 13 14 15 14 10 10 15 23
76 79 81 84 87 90 93 94 94 94 96 97 100 101 102 102 101 96 86 72 60 52 49 50 53 57 57 57 59 61 58 55 53 52 50 49 50 50 49 48 47 46 46 45 45 45 46 47 48 49 49 48 47 47 47 47 47 48 47 46 43 36 26 18 14 15 16 13 10 10 11 12 15 17 17 17 15 11 9 11 12 11 7 7 13 18
81 83 85 87 89 92 94 96 97 97 97 98 99 101 102 102 100 93 80 65 53 47 46 45 48 52 56 56 56 56 54 51 49 49 48 48 48 48 48 47 46 46 45 45 45 45 46 47 48 49 49 48 47 47 46 45 46 47 47 45 42 34 24 15 12 12 12 9 9 11 12 13 16 15 14 15 14 10 9 10 9 8 5 2 8 11
84 86 89 91 93 96 98 100 101 103 103 102 103 104 102 100 96 87 74 60 50 46 47 47 47 48 51 53 54 54 52 49 47 47 46 46 46 47 47 46 46 45 45 45 45 45 46 46 47 48 49 48 47 46 44 44 44 45 45 44 40 32 23 14 9 8 9 8 8 11 11 12 14 12 11 13 12 9 8 7 5 4 4 2 4 6
86 89 92 94 97 99 100 100 101 103 104 104 105 105 102 97 91 81 68 57 51 49 50 51 52 51 51 50 51 52 51 48 47 46 45 44 44 46 46 46 46 46 46 46 46 45 46 46 46 47 48 48 47 46 44 42 42 43 43 42 37 30 21 13 8 6 6 6 7 9 9 10 12 11 10 11 11 9 7 6 6 7 7 6 5 4
Wind_Direction
315 314 314 315 314 314 314 314 315 315 316 316 317 317 317 317 318 318 317 315 314 313 314 314 313 313 313 312 312 312 311 310 308 307 306 303 300 296 292 289 286 282 279 278 279 281 283 284 286 287 289 290 290 290 290 289 289 289 289 290 291 293 294 294 294 294 294 293 293 292 292 292 292 292 293 293 293 293 293 293 294 293 292 292 291 291
317 317 317 317 317 318 320 320 321 321 321 321 321 321 320 319 319 319 318 317 316 316 316 316 316 317 317 315 314 313 313 312 310 309 307 304 301 299 296 293 290 288 285 283 283 284 285 287 288 289 290 291 291 291 291 290 291 291 292 293 295 296 296 297 296 295 295 294 294 293 293 292 292 292 292 292 292 292 293 293 292 292 292 292 292 291
321 321 321 322 323 324 325 325 326 325 324 323 322 321 320 318 316 317 319 320 319 318 319 320 320 320 318 316 315 315 314 311 310 308 306 305 305 303 302 300 298 297 296 294 292 291 291 291 291 292 292 292 292 292 292 293 294 295 296 297 297 296 296 296 295 295 295 295 295 294 293 292 292 292 292 292 292 292 292 292 292 292 292 292 291 291
325 326 328 329 328 327 327 327 327 326 325 323 321 319 319 319 318 318 320 322 323 322 322 322 323 323 319 316 316 315 313 311 311 312 312 313 313 312 311 310 309 307 305 303 300 298 296 294 293 293 293 293 294 294 295 296 297 297 297 297 296 295 295 295 295 295 294 294 294 293 293 292 292 293 293 293 292 292 291 291 291 291 291 291 290 290
331 333 332 330 329 328 327 325 325 324 323 322 321 321 322 323 324 324 324 324 325 325 324 323 323 323 318 315 317 317 317 319 321 322 323 323 323 321 320 318 315 311 307 305 303 301 299 297 296 295 295 294 295 296 296 296 296 296 295 295 295 295 294 294 294 293 293 293 293 293 293 293 294 294 294 293 292 291 291 291 291 290 290 290 289 289
335 333 331 329 328 326 325 324 324 323 322 323 325 326 327 328 328 328 328 328 328 326 325 324 324 323 320 318 321 323 325 328 330 330 330 330 330 327 324 321 316 311 308 306 304 303 301 300 300 299 298 297 297 297 296 295 295 294 294 294 293 293 293 293 293 293 293 294 294 294 294 295 294 294 294 293 292 292 292 291 290 289 289 288 288 288
333 330 328 327 326 326 326 325 324 323 324 326 329 330 331 332 332 333 334 334 333 330 329 330 329 328 326 326 328 329 332 333 333 334 333 332 332 330 327 323 317 313 311 309 306 303 301 299 297 296 296 295 295 295 295 294 294 294 295 294 294 294 294 294 294 294 294 293 293 293 293 293 293 293 293 292 292 292 292 291 290 289 288 286 286 287
330 329 329 328 327 327 327 326 326 328 330 332 333 334 335 336 337 339 339 339 339 335 334 335 336 334 333 334 335 334 335 335 334 333 332 330 331 331 328 323 319 317 315 311 307 304 302 301 299 298 297 296 296 295 295 295 296 296 296 295 295 294 294 293 293 293 292 292 292 292 292 292 292 292 291 291 291 291 291 290 290 290 289 288 286 286
330 330 330 329 329 328 328 329 332 335 336 337 338 338 339 340 341 342 341 341 341 338 336 337 337 336 335 336 336 334 334 334 331 329 329 328 328 328 326 322 320 318 314 311 306 305 306 306 305 304 302 301 300 299 298 297 297 296 296 295 295 294 294 293 293 293 293 293 293 293 293 293 293 293 293 293 292 291 291 290 290 290 290 288 286 285
331 331 331 331 332 332 334 337 339 340 340 340 341 341 341 341 340 339 338 339 339 338 337 337 336 334 334 334 333 331 331 330 327 325 325 325 324 323 322 320 318 316 313 310 307 307 307 306 305 304 303 302 301 300 299 298 297 297 296 296 296 296 296 296 295 295 295 295 295 295 295 295 296 296 297 297 296 295 293 292 291 289 288 287 285 285
333 334 335 335 336 338 340 342 342 342 342 341 340 340 340 339 337 336 334 335 335 336 337 335 334 333 333 333 332 330 330 328 325 323 322 322 320 319 318 317 316 313 311 309 307 306 304 303 302 302 301 300 300 299 298 298 297 296 296 296 295 295 295 295 294 294 294 294 294 294 295 296 296 298 299 300 300 299 298 297 294 291 289 287 286 285
338 339 339 339 340 343 344 344 343 343 342 341 339 339 338 336 335 333 331 331 332 335 336 334 333 333 334 334 333 331 330 327 325 322 321 320 319 318 315 314 312 310 308 307 306 305 304 303 302 301 300 299 298 297 297 296 295 295 294 293 293 293 293 293 293 293 293 293 293 293 293 293 294 295 296 297 298 299 300 300 300 297 295 291 288 286
343 342 341 342 344 345 345 344 343 341 340 340 339 338 337 336 335 332 331 332 332 334 336 334 333 334 335 336 334 332 330 326 323 321 320 319 318 316 313 310 309 307 306 305 305 305 304 304 303 302 302 301 301 300 300 299 298 297 296 295 294 293 293 293 293 293 293 293 293 293 293 293 293 294 295 296 296 297 297 298 299 300 299 298 294 291
344 344 344 345 346 346 345 343 341 340 339 340 340 339 340 338 337 334 333 333 331 332 334 334 333 334 335 336 335 333 329 323 322 321 319 319 317 313 310 307 305 304 304 304 304 304 303 303 303 302 302 303 304 304 304 303 302 300 299 298 297 295 294 293 293 293 293 293 293 293 293 292 293 293 294 295 295 296 295 295 296 297 298 298 298 296
345 346 347 347 347 346 344 342 340 340 339 340 340 340 340 339 336 334 333 332 330 330 332 334 333 332 335 337 334 331 326 321 320 320 318 317 314 310 307 304 304 303 303 303 302 303 303 302 302 302 303 303 304 303 303 302 301 300 299 298 297 296 295 294 294 293 293 293 293 292 292 292 292 292 292 293 293 294 294 294 295 294 295 296 296 297
348 348 349 348 347 345 343 340 339 339 339 339 339 339 339 337 334 331 330 330 329 329 331 333 332 331 335 338 334 327 322 319 318 316 315 313 310 307 306 306 305 304 303 303 304 304 303 302 302 302 302 302 302 301 301 300 300 299 298 297 296 295 294 293 293 293 293 293 292 292 292 291 291 290 291 291 291 292 292 292 292 292 293 293 294 294
351 349 349 347 345 345 342 339 338 339 339 338 339 339 337 335 332 328 327 328 328 327 330 332 331 329 334 338 334 325 320 316 314 312 310 308 306 306 306 306 305 304 305 307 307 306 305 303 302 302 301 300 299 298 297 297 297 297 296 295 295 294 293 292 292 291 291 291 291 291 291 290 289 289 289 289 289 289 289 289 290 290 290 291 291 292
349 348 347 345 344 343 340 339 338 338 338 338 339 338 335 333 331 328 327 327 327 327 328 332 330 328 334 337 331 325 319 313 309 308 307 307 307 308 309 307 306 307 309 309 308 307 305 304 302 300 299 298 296 295 294 293 293 293 292 292 291 291 291 290 290 290 290 290 290 289 289 288 288 287 287 287 287 287 286 287 287 288 289 289 289 290
344 344 345 344 343 342 340 338 337 337 339 339 339 337 334 333 330 327 327 327 326 325 326 330 328 327 334 336 328 324 316 305 305 308 310 312 313 313 312 310 309 309 309 307 305 304 303 302 301 299 297 296 295 294 292 291 290 290 290 290 290 289 288 287 287 287 287 288 288 288 288 287 287 286 286 285 286 286 285 285 285 285 286 287 287 288
341 341 343 344 344 342 340 338 337 338 339 338 338 336 333 332 328 327 328 326 325 323 323 328 326 326 335 336 327 320 310 303 305 310 313 314 314 313 312 310 308 306 304 303 301 300 300 300 300 299 298 298 297 296 295 294 292 291 291 291 291 289 288 287 286 285 284 284 285 284 284 284 284 284 284 284 284 285 285 285 285 284 284 284 285 286
341 339 341 343 344 342 340 338 337 338 338 338 338 336 333 330 326 326 328 327 325 323 324 326 323 327 335 332 322 315 310 308 308 310 312 312 311 310 308 307 305 303 302 300 299 298 297 298 298 299 300 300 300 299 298 297 295 294 294 294 293 292 291 289 287 284 283 283 284 283 282 281 280 280 281 282 282 283 283 284 284 284 283 283 283 283
340 338 339 342 344 343 341 338 336 337 337 337 338 336 332 329 325 326 328 329 327 325 327 324 321 327 334 327 317 314 312 311 310 309 310 309 308 307 305 304 303 301 300 298 297 296 295 296 297 299 300 300 299 298 296 294 293 293 293 293 292 291 289 288 287 286 285 285 285 286 285 282 280 279 279 280 280 280 281 282 283 283 283 282 281 280
339 337 338 340 343 343 340 336 334 334 335 336 337 335 332 330 328 328 329 330 329 328 329 321 318 326 330 320 315 315 313 312 311 310 309 307 306 305 304 303 302 301 299 297 295 295 295 295 296 297 299 298 296 294 291 289 290 291 291 290 288 286 286 285 285 286 287 287 287 288 287 285 282 281 281 281 280 279 279 280 281 281 281 281 280 278
338 336 336 337 339 338 335 333 332 333 335 336 338 336 333 332 331 331 331 329 328 329 327 319 317 324 324 316 314 314 312 311 310 309 307 306 305 305 304 303 302 300 298 296 295 294 293 293 295 298 298 296 294 291 289 288 289 290 289 287 285 285 285 284 282 284 287 288 288 288 286 285 283 282 282 283 283 282 280 280 281 280 279 279 279 278
338 337 335 336 338 337 334 332 333 335 336 338 338 336 333 332 332 332 331 328 326 327 324 319 319 322 318 314 314 312 311 310 308 308 308 307 306 305 303 302 301 300 299 297 295 291 289 290 294 297 297 295 293 291 289 287 286 286 286 286 286 286 285 283 282 283 285 285 286 285 283 281 281 281 282 283 284 284 282 280 280 279 278 277 277 277
338 337 336 338 341 342 339 336 335 336 337 337 336 335 333 332 332 331 330 327 325 324 323 321 320 318 315 314 313 312 311 310 309 308 307 306 305 304 304 304 304 302 299 294 290 287 287 291 294 296 296 294 291 288 285 282 281 283 285 286 286 285 285 284 284 284 284 283 282 280 278 277 278 279 280 280 282 284 283 281 279 277 275 275 275 275
337 337 336 338 341 342 339 335 335 335 336 336 335 335 334 332 331 330 329 327 325 322 322 322 319 316 315 314 313 312 311 310 310 308 307 306 306 307 307 305 301 295 290 286 285 288 291 293 295 295 293 290 287 285 283 281 281 283 285 285 285 284 284 284 283 283 282 280 277 275 275 277 278 278 278 278 280 280 281 280 277 273 272 272 272 272
336 337 336 337 340 339 335 334 335 335 336 336 334 334 334 332 331 331 329 327 325 322 321 320 318 316 315 314 313 312 311 310 310 309 309 308 308 308 305 300 294 290 286 284 286 290 292 293 293 293 291 289 287 286 284 284 284 284 285 285 285 284 283 282 282 281 280 278 276 275 277 279 279 279 278 277 277 277 279 277 272 268 267 267 268 270
336 337 336 336 338 338 335 333 335 335 335 335 334 333 333 333 332 331 329 327 325 322 320 320 319 317 314 313 312 311 311 310 310 310 308 305 304 302 299 296 294 293 292 290 290 291 292 292 292 292 291 290 289 288 287 287 287 287 287 287 286 286 285 285 285 285 284 283 281 280 280 281 280 278 277 276 276 276 275 272 267 264 262 260 262 265
336 336 335 335 337 338 335 333 334 335 335 334 334 333 334 334 332 330 328 327 325 323 321 320 317 315 313 312 311 311 311 310 308 306 303 301 299 298 297 296 296 295 294 294 293 293 293 293 293 293 293 293 293 293 293 292 292 292 292 292 292 292 292 291 291 291 290 289 287 285 283 282 279 276 272 272 272 271 268 265 263 261 259 257 256 259
336 336 335 334 336 338 336 334 335 335 334 334 334 334 334 333 331 329 328 328 327 324 321 319 317 315 314 312 311 311 310 307 305 303 302 302 300 300 299 298 298 297 298 298 298 299 299 299 300 300 301 301 301 301 300 300 300 299 298 298 297 297 297 297 296 295 295 295 294 292 288 284 281 277 270 266 265 265 263 261 258 256 255 253 251 253
336 336 336 334 336 338 337 334 335 336 335 335 335 335 334 333 332 331 331 330 328 324 322 320 317 314 313 313 313 312 309 305 304 305 305 305 304 303 303 304 305 306 307 308 308 307 307 307 307 307 308 308 308 308 308 308 307 306 305 304 303 302 301 299 300 300 299 300 300 300 297 292 287 283 274 265 262 261 262 261 257 254 254 251 247 250
336 336 336 336 337 338 337 335 336 336 336 336 337 336 335 334 333 333 332 330 327 324 320 317 314 313 314 315 313 310 308 306 307 309 310 310 309 308 309 310 312 314 314 313 312 312 311 311 312 312 313 314 314 314 314 313 311 309 309 308 307 305 302 299 299 298 298 299 299 300 301 298 294 291 285 273 264 259 258 259 258 256 255 253 249 251
337 337 337 337 336 337 337 336 337 339 338 338 338 337 336 335 334 333 331 329 325 320 316 314 315 316 316 313 311 309 309 309 310 312 313 313 312 311 312 313 315 315 315 315 315 315 315 314 314 315 316 316 316 315 315 313 311 310 310 310 311 308 303 297 295 294 294 295 295 297 298 298 295 294 292 286 274 263 257 256 257 257 256 255 253 253
338 338 338 337 336 337 337 337 339 341 340 339 339 338 336 335 333 331 329 327 322 319 318 318 318 317 315 313 313 312 312 312 313 315 316 315 313 313 314 316 318 319 319 319 319 318 318 318 318 318 319 319 319 319 318 316 314 312 313 314 314 312 306 300 296 294 293 293 294 295 296 294 293 294 294 293 287 275 263 256 255 255 255 255 254 254
339 338 338 338 337 337 338 339 340 340 340 339 338 337 336 335 333 330 328 327 325 323 322 320 318 318 317 317 317 315 315 315 317 321 322 319 316 317 318 321 323 323 323 323 323 323 323 323 323 323 323 323 324 323 321 318 316 315 315 317 316 315 313 309 306 302 300 298 298 298 297 295 294 295 296 297 295 288 276 262 254 252 253 253 253 252
339 338 338 338 338 338 339 339 340 339 339 339 339 337 336 335 333 329 327 327 327 325 322 321 321 322 321 321 320 320 320 320 322 327 328 323 321 323 324 325 326 325 324 324 324 324 323 323 324 324 326 327 328 327 323 320 317 316 317 318 316 315 314 312 311 309 307 304 301 300 301 299 297 297 299 301 301 296 288 273 258 252 251 252 252 252
339 339 339 339 340 340 339 340 341 341 341 340 339 338 336 333 331 329 327 327 327 325 324 325 325 325 324 324 324 324 324 324 326 331 334 329 328 328 328 327 327 326 325 326 324 322 321 321 322 324 326 328 330 328 324 321 318 318 319 319 316 314 313 312 312 312 310 306 302 302 304 303 301 302 303 304 306 305 297 285 269 255 249 249 250 251
340 340 341 341 341 341 341 342 343 342 341 340 339 337 334 332 331 329 327 327 327 327 328 328 327 327 327 327 327 327 328 328 329 335 337 333 332 332 330 328 327 326 326 326 323 321 320 320 321 323 326 329 330 328 325 322 320 320 322 322 318 315 314 315 317 316 314 311 307 307 309 308 306 306 305 305 309 312 308 298 284 267 253 247 246 247
342 342 342 343 343 343 342 342 342 341 340 340 338 336 333 332 331 330 328 328 330 331 332 330 329 329 329 328 329 330 331 331 332 336 337 335 333 332 329 327 326 326 325 323 321 319 318 320 322 324 328 331 331 329 326 323 321 322 324 322 318 316 315 317 319 320 319 318 314 311 309 310 310 308 304 303 309 313 313 307 294 279 265 252 244 241
343 343 343 343 344 344 342 341 341 340 340 339 337 336 333 332 332 332 330 330 332 333 332 331 330 331 331 331 331 332 334 335 335 335 336 334 331 329 327 326 326 326 325 322 321 319 319 320 323 326 330 333 333 330 328 324 322 323 325 322 317 315 316 318 320 320 320 319 316 313 311 312 312 308 300 302 312 315 313 307 296 285 277 261 244 236
344 344 344 344 344 344 342 341 339 340 340 339 337 336 334 333 334 333 332 331 332 332 332 332 332 333 333 333 334 335 337 337 335 334 334 333 331 328 327 327 327 326 324 322 322 321 320 322 325 328 331 334 334 332 329 325 322 324 325 323 317 314 316 319 320 320 320 318 316 315 314 313 310 305 301 306 314 315 312 306 295 287 283 268 247 233
344 343 343 344 344 344 343 342 341 341 341 340 338 337 335 335 335 333 332 332 333 332 332 333 335 336 336 336 337 336 336 336 335 334 333 332 330 329 328 329 329 328 326 325 324 324 323 324 326 329 333 335 335 333 329 325 324 325 326 324 317 314 318 320 320 319 319 317 317 319 318 314 308 304 305 311 316 317 315 311 305 296 284 269 249 230
344 343 344 345 346 345 344 344 342 341 341 340 338 336 335 335 334 332 332 334 334 334 334 335 337 339 338 337 337 336 336 335 335 334 333 332 332 331 331 332 331 330 328 327 327 326 325 326 328 330 333 336 336 333 330 328 327 328 328 326 320 317 320 321 320 319 318 317 322 326 321 311 306 306 314 320 322 321 317 313 313 311 296 273 248 225
344 345 345 346 346 345 344 343 341 340 341 340 338 336 335 334 333 332 334 335 335 335 336 336 337 339 339 337 336 335 335 336 335 334 334 334 334 333 333 333 333 331 330 329 329 327 327 327 328 329 333 337 337 334 332 332 331 330 330 330 324 320 322 323 318 317 317 321 330 333 320 308 310 317 325 328 326 324 322 320 322 324 316 289 245 214
345 346 346 345 344 343 342 341 341 341 341 340 339 337 336 335 334 334 336 337 336 336 336 336 337 338 338 337 335 334 335 336 334 334 336 335 335 334 334 333 333 332 330 330 330 328 327 328 328 330 333 337 338 336 335 336 334 332 332 333 329 325 325 323 317 315 319 328 339 338 320 312 320 326 330 330 327 326 330 335 338 338 325 291 234 202
345 346 345 344 342 341 341 342 342 343 343 341 339 338 337 335 334 335 337 338 336 335 335 336 336 337 337 337 335 333 334 335 334 335 337 337 335 334 334 334 334 333 332 332 331 330 329 329 329 331 334 337 340 339 338 338 336 334 334 335 334 331 327 322 314 314 323 334 345 336 317 313 324 331 333 332 331 332 339 348 356 355 329 273 221 195
345 346 345 344 343 342 342 342 343 344 345 343 340 338 337 336 336 337 338 338 335 333 333 334 335 335 336 336 334 332 332 334 335 335 336 336 335 334 335 335 335 334 333 333 332 331 330 330 331 333 335 338 341 341 340 338 337 336 337 338 336 333 329 320 310 314 328 341 344 329 315 315 327 335 337 336 335 335 337 347 2 9 343 260 219 202
346 346 345 344 344 343 343 342 342 343 345 344 341 339 338 337 337 338 339 338 334 332 331 332 333 334 335 335 333 331 331 333 334 334 335 335 335 335 335 335 335 334 333 332 331 331 331 331 333 335 337 339 342 343 342 340 338 338 339 340 338 335 330 319 307 316 331 340 335 322 315 322 335 342 342 340 341 340 338 345 5 21 11 266 219 214
346 346 346 345 345 345 344 344 342 342 343 343 341 340 339 338 338 339 339 337 334 333 332 331 332 333 333 334 333 331 331 333 334 334 335 335 334 334 335 335 334 333 331 331 330 331 332 333 335 337 338 341 343 344 343 340 339 339 341 341 339 338 333 321 308 318 329 330 325 318 315 330 346 350 344 345 349 348 343 345 349 347 337 276 232 234
347 347 347 346 346 345 345 344 343 341 342 342 341 340 340 339 338 339 338 337 335 335 335 334 334 334 334 334 334 333 332 333 334 334 334 334 334 334 335 335 333 331 330 330 330 330 332 334 337 339 341 343 345 345 344 342 340 340 342 342 341 340 336 322 306 312 316 312 316 313 313 336 358 0 352 355 3 359 344 332 321 313 304 284 267 248